Location: Novokuznetsk
(53.7500°N, 87.1000°E)
Time: 20:39:30
(UTC+06:00)

ISS - Visible Passes

Search period start: 13 July 2025 00:00
Search period end: 23 July 2025 00:00
Orbit: 413 x 417 km, 51.6° (Epoch: 13 July)

Date Brightness Start Highest point End Pass type
(mag) Time Alt. Az. Time Alt. Az. Time Alt. Az.
13 Jul -2.1 01:23:20 10° W 01:25:00 18° SW 01:25:00 18° SW visible
13 Jul -3.7 22:57:32 10° W 23:00:50 57° S 23:04:06 10° ESE visible
14 Jul -2.7 00:34:18 10° W 00:36:54 27° SW 00:36:54 27° SW visible
14 Jul -3.8 22:08:41 10° W 22:11:59 61° S 22:15:18 10° ESE visible
14 Jul -3.1 23:45:21 10° W 23:48:27 35° SSW 23:49:06 32° S visible
15 Jul -3.7 21:19:50 10° WSW 21:23:08 60° S 21:26:27 10° E visible
15 Jul -3.4 22:56:26 10° W 22:59:39 44° SSW 23:01:27 22° SE visible
16 Jul -1.5 00:33:40 10° WSW 00:34:16 12° WSW 00:34:16 12° WSW visible
16 Jul -3.6 22:07:32 10° W 22:10:48 52° S 22:13:52 11° ESE visible
16 Jul -2.3 23:44:26 10° W 23:46:42 21° SW 23:46:42 21° SW visible
17 Jul -3.6 21:18:36 10° W 21:21:55 58° S 21:25:13 10° ESE visible
17 Jul -2.7 22:55:21 10° W 22:58:18 29° SSW 22:59:10 25° S visible
18 Jul -3.1 22:06:21 10° W 22:09:28 37° SSW 22:11:42 16° SE visible
18 Jul -1.3 23:44:09 10° WSW 23:44:32 11° WSW 23:44:32 11° WSW visible
19 Jul -3.3 21:17:22 10° W 21:20:35 46° SSW 21:23:48 10° ESE visible
19 Jul -1.9 22:54:30 10° WSW 22:56:46 17° SW 22:57:05 17° SSW visible
20 Jul -2.3 22:05:15 10° W 22:07:57 23° SSW 22:09:39 16° SSE visible
21 Jul -2.6 21:16:06 10° W 21:19:06 30° SSW 21:22:05 10° SE visible
22 Jul -1.4 22:04:38 10° WSW 22:06:15 13° SW 22:07:43 10° SSW visible
